#timestamp,LO_Frequency,Hit 
1504580415.1,286046999.7,N
1504580435.8,286046998.5,N
1504580455.7,286047000.5,N
1504580475.5,286047001.7,N
1504580495.3,286047003.8,N
1504580515.2,286047004.6,N
1504580535.9,286047002.9,N
1504580555.7,286047003.9,N
1504580575.6,286047002.0,N
1504580595.4,286047001.6,N
1504580615.2,286047003.1,N
1504580635.1,286047001.9,N
1504580636.0,286047001.9,N
1504580655.8,286047001.8,N
1504580675.6,286047007.4,N
1504580695.4,286047005.8,N
1504580715.3,286047002.9,N
1504580735.1,286047004.6,N
1504580755.8,286047006.4,N
1504580775.7,286047005.0,N
1504580795.5,286047000.9,N
1504580815.3,286046991.9,N
1504580835.2,286046985.7,N
1504580855.9,286046982.1,N
1504580875.7,286046983.3,N
1504580895.6,286046981.3,N
1504580915.4,286046980.8,N
1504580935.2,286046981.5,N
1504580955.0,286046980.3,N
1504580956.0,286046980.3,N
1504580975.8,286046981.8,N
1504580995.6,286046977.4,N
1504581015.4,286046973.2,N
1504581035.3,286046975.1,N
1504581055.1,286046975.3,N
1504581075.8,286046975.4,N
1504581095.7,286046974.6,N
1504581115.5,286046976.0,N
1504581135.3,286046973.3,N
1504581155.2,286046972.2,N
1504581175.9,286046971.8,N
1504581195.7,286046967.9,N
1504581215.6,286046969.0,N
1504581235.4,286046970.4,N
1504581255.2,286046971.4,N
1504581275.1,286046973.9,N
1504581276.0,286046973.9,N
1504581295.8,286046970.1,N
1504581315.6,286046969.0,P
1504581335.5,286046990.0,N
1504581355.3,286046987.1,N
1504581375.1,286046984.8,N
1504581395.9,286046979.5,N
1504581415.7,286046979.9,N
1504581435.5,286046979.3,P
1504581455.4,286046998.4,N
1504581475.2,286047001.1,N
1504581495.0,286047002.3,N
1504581495.9,286047002.3,N
1504581515.8,286047002.6,N
1504581535.6,286047002.5,N
1504581555.4,286047004.8,N
1504581575.3,286047008.8,N
1504581595.1,286047010.2,N
1504581596.0,286047010.2,N
1504581615.8,286047006.5,N
1504581635.6,286047006.1,N
1504581655.5,286047006.8,N
1504581675.3,286047003.7,N
1504581695.1,286047000.0,N
1504581715.9,286047000.4,N
1504581735.7,286047000.3,N
1504581755.5,286047003.0,N
1504581775.4,286047008.9,N
1504581795.2,286047013.3,N
1504581815.0,286047023.6,N
1504581815.9,286047023.6,N
1504581835.8,286047022.2,N
1504581855.6,286047023.7,N
1504581875.4,286047025.5,N
1504581895.3,286047031.2,N
1504581915.1,286047036.0,P
1504581916.0,286047036.0,N
1504581935.8,286047030.3,N
1504581955.7,286047031.3,N
1504581975.5,286047033.2,P
1504581995.3,286047000.1,N
1504582015.2,286047003.9,N
1504582035.9,286047004.3,N
1504582055.7,286047003.5,N
1504582075.6,286047002.3,N
1504582095.4,286047002.9,N
1504582115.2,286047003.7,N
1504582135.1,286047005.2,N
1504582136.0,286047005.2,N
1504582155.8,286047007.3,N
1504582175.6,286047007.1,N
1504582195.5,286047007.1,N
1504582215.3,286047010.6,N
1504582235.1,286047013.5,N
1504582255.8,286047011.7,N
1504582275.7,286047013.2,N
1504582295.5,286047013.6,N
1504582315.3,286047010.0,N
1504582335.2,286047008.6,N
1504582355.9,286047007.0,N
1504582375.7,286047008.1,N
1504582395.6,286047010.4,N
1504582415.4,286047012.9,N
1504582435.2,286047012.8,N
1504582455.1,286047015.2,N
1504582456.0,286047015.2,N
1504582475.8,286047015.0,N
1504582495.6,286047010.9,N
1504582515.5,286047012.1,N
1504582535.3,286047009.5,N
1504582555.1,286047009.9,N
1504582575.8,286047008.8,N
1504582595.7,286047008.2,N
1504582615.5,286047007.6,N
1504582635.3,286047004.5,N
1504582655.2,286047005.0,N
1504582675.9,286047005.2,N
1504582695.7,286047002.3,N
1504582715.6,286047005.3,N
1504582735.4,286047004.6,N
1504582755.2,286047004.0,N
1504582775.1,286046995.0,N
1504582776.0,286046995.0,N
1504582795.8,286046992.0,N
1504582815.6,286046987.2,N
1504582835.5,286046987.3,N
1504582855.3,286046989.5,N
1504582875.1,286046986.4,N
1504582895.8,286046983.6,N
1504582915.7,286046982.8,N
1504582935.5,286046985.5,N
1504582955.3,286046985.2,N
1504582975.2,286046979.6,N
1504582995.9,286046977.9,N
1504583015.7,286046980.4,N
1504583035.6,286046981.2,N
1504583055.4,286046980.1,N
1504583075.2,286046978.7,N
1504583095.1,286046976.8,N
1504583096.0,286046976.8,N
1504583115.8,286046973.2,N
1504583135.6,286046973.5,N
1504583155.5,286046974.5,N
1504583175.3,286046974.3,N
1504583195.1,286046969.5,N
1504583215.8,286046970.0,N
1504583235.7,286046973.3,N
1504583255.5,286046971.2,N
1504583275.3,286046971.5,N
1504583295.2,286046972.8,N
1504583315.0,286046971.2,P
1504583315.9,286046971.2,P
1504583335.8,286046991.0,N
1504583355.6,286046988.9,N
1504583375.4,286046991.5,N
1504583395.2,286046988.5,N
1504583415.1,286046988.3,N
1504583416.0,286046988.3,N
1504583435.8,286046988.4,N
1504583455.6,286046988.5,N
1504583475.5,286046989.1,N
1504583495.3,286046994.8,N
1504583515.1,286046996.0,N
1504583535.9,286046995.4,N
1504583555.7,286046990.8,N
1504583575.5,286046992.4,N
1504583595.4,286046990.3,N
1504583615.2,286046988.5,N
1504583635.0,286046993.0,N
1504583635.9,286046993.0,N
1504583655.8,286046991.9,N
1504583675.6,286046993.0,N
1504583695.4,286046994.2,N
1504583715.2,286046991.7,N
1504583735.1,286046999.1,N
1504583736.0,286046999.1,N
1504583755.8,286047000.4,N
1504583775.6,286047006.3,N
1504583795.5,286047014.0,N
1504583815.3,286047014.1,N
1504583835.1,286047015.8,N
1504583855.9,286047017.5,N
1504583875.7,286047017.3,N
1504583895.5,286047020.3,N
1504583915.4,286047014.7,N
1504583935.2,286047016.0,N
1504583955.0,286047018.3,N
1504583955.9,286047018.3,N
1504583975.8,286047018.6,N
1504583995.6,286047022.8,N
